Tekamah, NE

11:00 PM CDT on May 26, 2018 (GMT -0500)
Tekamah

Weather History for KTQE - September, 2014

Change the Weather History Date:

Monday, September 22, 2014

  Actual Average Record
Temperature  
Mean Temperature 59 °F -  
Max Temperature 77 °F 74 °F 95 °F (2017)
Min Temperature 43 °F 46 °F 34 °F (1954)
Degree Days  
Heating Degree Days 6    
Growing Degree Days 9 (Base 50)    
Moisture  
Dew Point 47 °F    
Average Humidity 77    
Maximum Humidity 97    
Minimum Humidity 36    
Precipitation  
Precipitation 0.00 in - - ()
Sea Level Pressure  
Sea Level Pressure 30.26 in    
Wind  
Wind Speed 3 mph (South)    
Max Wind Speed 12 mph    
Max Gust Speed -    
Visibility 8 miles    
Events Fog    
Averages and records for this station are not official NWS values.
T = Trace of Precipitation, MM = Missing Value Source: NWS Daily Summary

Daily Weather History Graph

Daily Weather History Graph

Search for Another Location

Airport or City:

Astronomy

Sep. 22, 2014 Rise Set
Actual Time 7:12 AM CDT 7:21 PM CDT
Civil Twilight 6:44 AM CDT 7:49 PM CDT
Nautical Twilight 6:11 AM CDT 8:22 PM CDT
Astronomical Twilight 5:38 AM CDT 8:55 PM CDT
Moon 5:40 AM CDT (9/22) 6:30 PM CDT (9/22)
Length of Visible Light 13h 05m
Length of Day
12h 09m
Waning Crescent, 2% of the Moon is Illuminated
Sep 22
Waning Crescent
Sep 24
New
Oct 1
First Quarter
Oct 8
Full
Oct 15
Last Quarter

Hourly Weather History & Observations

Time (CDT) Temp. Windchill Dew Point Humidity Pressure Visibility Wind Dir Wind Speed Gust Speed Precip Events Conditions
12:54 AM 48.0 °F - 45.0 °F 89% 30.26 in 10.0 mi SSE 3.5 mph - N/A   Clear
1:54 AM 46.9 °F - 44.1 °F 90% 30.28 in 10.0 mi Calm Calm - N/A   Clear
3:54 AM 45.0 °F - 43.0 °F 93% 30.28 in 10.0 mi Calm Calm - N/A   Clear
4:37 AM 43.0 °F - 41.0 °F 93% 30.29 in 10.0 mi Calm Calm - N/A   Partly Cloudy
4:51 AM 44.6 °F - 42.8 °F 93% 30.29 in 10.0 mi Calm Calm - N/A   Mostly Cloudy
4:54 AM 44.1 °F - 42.1 °F 93% 30.28 in 5.0 mi Calm Calm - N/A   Mostly Cloudy
5:11 AM 43.0 °F 41.3 °F 42.1 °F 97% 30.30 in 10.0 mi SSW 3.5 mph - N/A   Scattered Clouds
5:54 AM 43.0 °F - 42.1 °F 97% 30.29 in 10.0 mi Calm Calm - N/A   Clear
6:30 AM 43.0 °F - 41.0 °F 93% 30.31 in 10.0 mi Calm Calm - N/A   Partly Cloudy
6:54 AM 43.0 °F - 41.0 °F 93% 30.31 in 10.0 mi Calm Calm - N/A   Partly Cloudy
7:21 AM 43.0 °F 41.3 °F 41.0 °F 93% 30.32 in 1.8 mi SE 3.5 mph - N/A   Mostly Cloudy
7:29 AM 43.0 °F - 42.1 °F 97% 30.32 in 0.2 mi Calm Calm - N/A Fog Fog
7:54 AM 44.1 °F - 43.0 °F 96% 30.30 in 0.2 mi Calm Calm - N/A Fog Fog
8:54 AM 48.9 °F - 48.0 °F 97% 30.30 in 0.2 mi South 3.5 mph - N/A Fog Fog
9:17 AM 52.0 °F - 50.0 °F 93% 30.31 in 2.5 mi Calm Calm - N/A   Mostly Cloudy
9:24 AM 53.1 °F - 51.1 °F 93% 30.31 in 9.0 mi SSE 3.5 mph - N/A   Mostly Cloudy
9:37 AM 54.0 °F - 52.0 °F 93% 30.31 in 10.0 mi Calm Calm - N/A   Partly Cloudy
9:54 AM 55.9 °F - 53.1 °F 90% 30.30 in 10.0 mi Variable 4.6 mph - N/A   Clear
10:54 AM 68.0 °F - 52.0 °F 56% 30.30 in 10.0 mi South 11.5 mph - N/A   Clear
11:54 AM 71.1 °F - 48.9 °F 45% 30.28 in 10.0 mi South 10.4 mph - N/A   Clear
12:54 PM 72.0 °F - 48.0 °F 43% 30.27 in 10.0 mi Variable 6.9 mph - N/A   Clear
1:54 PM 73.0 °F - 46.0 °F 38% 30.25 in 10.0 mi SSW 8.1 mph - N/A   Clear
2:54 PM 75.0 °F - 46.9 °F 37% 30.22 in 10.0 mi South 10.4 mph - N/A   Clear
3:54 PM 75.9 °F - 46.9 °F 36% 30.19 in 10.0 mi South 9.2 mph - N/A   Clear
4:54 PM 73.9 °F - 46.9 °F 38% 30.18 in 10.0 mi SSW 11.5 mph - N/A   Clear
5:54 PM 73.0 °F - 46.9 °F 39% 30.17 in 10.0 mi South 9.2 mph - N/A   Clear
6:54 PM 68.0 °F - 51.1 °F 55% 30.16 in 10.0 mi SE 6.9 mph - N/A   Clear
7:54 PM 63.0 °F - 51.1 °F 65% 30.16 in 10.0 mi ESE 6.9 mph - N/A   Clear
8:54 PM 57.0 °F - 52.0 °F 83% 30.17 in 10.0 mi SSE 4.6 mph - N/A   Clear
9:54 PM 55.9 °F - 51.1 °F 84% 30.17 in 10.0 mi SSW 3.5 mph - N/A   Clear
10:54 PM 55.9 °F - 52.0 °F 87% 30.16 in 10.0 mi SSE 3.5 mph - N/A   Clear
11:54 PM 57.0 °F - 52.0 °F 83% 30.16 in 10.0 mi Calm Calm - N/A   Clear